Location: *
(32.8667°N, 13.1833°E)
Time: 08:56:20
(UTC+00:00)

Cosmos 1943 Rocket - Pass Details

Date: 18 July 2019
Orbit: 813 x 843 km, 71.0° (Epoch: 26 August)

Event Time Altitude Azimuth Distance (km) Brightness Sun altitude
Rises 23:26:21 0° 357° (N) 3,341 6.3 -36.1°
Reaches altitude 10° 23:29:33 10° 15° (NNE) 2,408 5.3 -36.1°
Maximum altitude 23:33:18 18° 59° (ENE) 1,886 4.3 -36.0°
Enters shadow 23:33:37 18° 63° (ENE) 1,891 4.3 -36.0°
